This is the latest recevied weather packets stored in our database for station/object PE1BMM-13. If no packets are shown the sender has not sent any weather packets the latest 10 day(s).
| Time | Temp. | Humidity | Pressure | Rain* | Wind** | Luminosity | Snow |
|---|---|---|---|---|---|---|---|
| 1777562988 | 19.44° C | 32% | 1026.3 hPa | 0 mm | - | - | - |
| 1777562688 | 19.44° C | 32% | 1026.3 hPa | 0 mm | - | - | - |
| 1777562392 | 19.44° C | 33% | 1026.4 hPa | 0 mm | - | - | - |
| 1777562088 | 19.44° C | 32% | 1026.4 hPa | 0 mm | - | - | - |
| 1777561787 | 19.44° C | 32% | 1026.4 hPa | 0 mm | - | - | - |
| 1777561487 | 19.44° C | 31% | 1026.5 hPa | 0 mm | - | - | - |
| 1777561182 | 18.89° C | 31% | 1026.6 hPa | 0 mm | - | - | - |
| 1777560876 | 19.44° C | 32% | 1026.6 hPa | 0 mm | - | - | - |
| 1777560578 | 18.89° C | 32% | 1026.6 hPa | 0 mm | - | - | - |
| 1777560276 | 18.89° C | 33% | 1026.8 hPa | 0 mm | - | - | - |
| 1777559976 | 18.89° C | 33% | 1026.9 hPa | 0 mm | - | - | - |
| 1777559676 | 18.89° C | 33% | 1026.8 hPa | 0 mm | - | - | - |
| 1777559376 | 18.89° C | 34% | 1027 hPa | 0 mm | - | - | - |
| 1777559080 | 18.89° C | 32% | 1026.9 hPa | 0 mm | - | - | - |
| 1777558776 | 18.89° C | 31% | 1027.1 hPa | 0 mm | - | - | - |
| 1777558478 | 18.89° C | 32% | 1027.1 hPa | 0 mm | - | - | - |
| 1777558176 | 18.89° C | 34% | 1027.1 hPa | 0 mm | - | - | - |
| 1777557876 | 18.89° C | 32% | 1027.2 hPa | 0 mm | - | - | - |
| 1777557575 | 18.89° C | 34% | 1027.2 hPa | 0 mm | - | - | - |
| 1777557276 | 18.89° C | 33% | 1027.3 hPa | 0 mm | - | - | - |
| 1777556970 | 18.33° C | 33% | 1027.4 hPa | 0 mm | - | - | - |
| 1777556670 | 18.33° C | 31% | 1027.3 hPa | 0 mm | - | - | - |
| 1777556370 | 18.33° C | 31% | 1027.5 hPa | 0 mm | - | - | - |
| 1777556071 | 18.33° C | 32% | 1027.7 hPa | 0 mm | - | - | - |
| 1777555771 | 18.33° C | 35% | 1027.5 hPa | 0 mm | - | - | - |
* Rain latest hour (hover to see other rain measurements)
** Current wind speed in m/s (hover to see current wind gust speed)